Regional Weather Roundup
Issued by NWS

Home | Current Version | Previous Version | Text Only | Print | Product List | Glossary On
Versions: 1 2 3 4 5 6 7 8 9 10 11 12 13 14 15 16 17 18 19 20 21 22 23 24 25 26 27 28 29 30 31 32 33 34 35 36 37 38 39 40 41 42 43 44 45 46 47 48 49 50
000
ASUS43 KLSX 191107
RWRMO

WEATHER SUMMARY FOR MISSOURI
NATIONAL WEATHER SERVICE SPRINGFIELD MO
600 AM CDT THU OCT 19 2017

NOTE: "FAIR" INDICATES FEW OR NO CLOUDS BELOW 12,000 FEET WITH NO
       SIGNIFICANT WEATHER AND/OR OBSTRUCTIONS TO VISIBILITY.
       CURRENT SKY AND/OR WEATHER CONDITIONS ARE NOT AVAILABLE FOR
       CHILLICOTHE AND FARMINGTON.

MOZ001>031-035>038-043-044-053-054-191200-
...NORTHERN AND WESTERN MISSOURI...

CITY           SKY/WX    TMP DP  RH WIND       PRES   REMARKS
KANSAS CTY INT CLEAR     51  48  89 S7        30.08R
KANSAS C DTWN  CLEAR     56  50  80 CALM      30.08R
LEE`S SUMMIT   CLEAR     54  48  80 SW8       30.10R
ST JOSEPH      FOG       42  42 100 CALM      30.07R VSB 1/4
CHILLICOTHE      N/A     47  46  97 CALM      30.10R
KIRKSVILLE     CLEAR     50  50 100 SW5       30.11R

$$
MOZ066>068-077>081-088>096-101>105-191200-
...SOUTHWEST MISSOURI...

CITY           SKY/WX    TMP DP  RH WIND       PRES   REMARKS
SPRINGFIELD    CLEAR     50  47  89 S7        30.16R
JOPLIN         CLEAR     54  48  80 S8        30.15R
BRANSON        CLEAR     46  45  93 CALM      30.19R

$$
MOZ032>034-039>042-045>050-055>058-069>072-191200-
...CENTRAL MISSOURI...

CITY           SKY/WX    TMP DP  RH WIND       PRES   REMARKS
COLUMBIA       CLEAR     51  46  83 S7        30.13R
JEFFERSON CITY CLEAR     48  45  89 SE6       30.14R
ROLLA          CLEAR     53  48  83 S12       30.17R
SEDALIA        CLEAR     57  49  74 SW12      30.12R
WHITEMAN AFB   CLEAR     50  46  85 S8        30.07R
WARRENSBURG    CLEAR     52  46  82 S5        30.10S
OSAGE BEACH    CLEAR     51  47  86 S5        30.16R

$$
MOZ051-052-059>065-191200-
...EAST CENTRAL MISSOURI...

CITY           SKY/WX    TMP DP  RH WIND       PRES   REMARKS
ST LOUIS INTL  CLEAR     54  48  80 CALM      30.16R
SPIRIT OF STL  CLEAR     46  46 100 CALM      30.14R
ST CHARLES     CLEAR     46  44  93 NE3       30.15R

$$
MOZ072>076-082>087-097>100-106>115-191200-
...SOUTH CENTRAL AND SOUTHEAST MISSOURI...

CITY           SKY/WX    TMP DP  RH WIND       PRES   REMARKS
CAPE GIRARDEAU CLEAR     48  45  89 S3        30.22R
FARMINGTON     CLEAR     55  46  71 S5        30.19R
POPLAR BLUFF   CLEAR     45  44  97 CALM      30.22R
WEST PLAINS    CLEAR     47  44  90 CALM      30.20R

$$



USA.gov is the U.S. government's official web portal to all federal, state and local government web resources and services.